Temperature
22 20 19 20 20 21 21 21 20 21 22 21 20 20 19 20 20 19 20 20 20 20 20 20 20 19 19 18 18 18 18 17 17 17 16 16 16 16 16 16 15 15 15 15
20 20 21 22 22 22 22 21 21 21 22 22 20 19 19 19 19 20 20 20 20 20 20 20 19 19 19 19 18 18 18 17 17 17 16 16 16 16 15 15 15 15 15 15
20 21 23 23 22 22 22 21 21 21 21 21 20 19 19 19 20 20 20 20 20 20 20 20 19 19 19 19 18 18 18 17 17 17 16 16 16 15 15 15 15 15 15 15
21 22 23 22 22 22 21 22 22 22 20 19 20 18 19 18 19 19 20 20 20 20 20 20 20 19 19 19 18 18 18 17 17 17 16 16 16 15 15 15 15 15 15 15
21 22 22 22 22 23 22 22 22 22 20 19 19 18 18 18 19 19 19 20 20 20 20 20 20 19 19 19 18 18 18 17 17 17 16 16 16 15 15 15 15 15 15 15
21 22 22 22 23 23 22 21 20 18 17 18 19 18 18 17 19 19 19 20 20 20 20 20 20 19 19 19 18 18 18 17 17 17 16 16 16 15 15 15 15 15 15 14
20 21 22 23 22 22 21 18 17 18 17 17 19 19 18 19 20 20 19 20 21 21 20 20 19 19 19 19 18 18 18 17 17 16 16 16 15 15 15 15 15 15 15 14
19 19 21 22 22 21 21 18 17 18 17 17 18 18 19 20 21 21 21 21 20 21 20 20 20 19 19 19 18 18 17 17 17 16 16 16 15 15 15 15 15 15 15 14
19 19 21 22 22 22 21 19 18 17 18 18 17 19 20 20 20 20 20 20 20 20 20 20 20 19 19 19 18 18 17 17 17 16 16 15 15 15 15 15 14 14 14 14
19 19 21 22 22 22 21 19 17 17 18 17 18 18 18 19 19 19 19 19 20 20 20 20 20 19 19 19 18 18 17 17 17 16 16 16 15 15 15 14 14 14 14 14
19 19 19 20 21 20 20 20 18 16 16 17 17 17 19 19 19 19 19 20 20 20 20 20 20 19 19 19 18 18 17 17 16 16 16 15 15 15 15 14 14 14 14 14
18 17 17 19 20 20 20 20 18 17 17 16 16 17 19 19 19 19 19 20 20 20 20 20 20 19 19 19 18 18 17 17 16 16 16 15 15 15 15 14 14 14 14 14
18 17 17 18 18 19 20 20 18 17 16 15 16 17 19 18 19 20 20 20 20 20 20 19 19 19 19 18 18 17 17 17 16 16 16 15 15 15 15 15 14 14 14 14
18 16 16 17 17 18 19 19 19 17 16 16 17 18 18 18 18 18 19 20 19 19 19 19 19 19 18 18 18 17 17 17 16 16 16 15 15 15 15 15 14 14 14 14
17 17 17 17 18 19 19 19 19 18 17 17 17 18 18 18 18 18 19 19 18 19 19 18 18 18 18 18 17 17 17 16 16 16 15 15 15 15 15 15 14 14 14 13
16 17 17 17 18 18 18 18 19 19 18 18 18 18 18 19 19 18 18 18 18 18 18 18 18 18 18 17 17 17 17 16 16 16 15 15 15 15 15 14 14 14 14 13
15 15 16 15 17 17 17 18 18 18 18 18 17 17 17 17 17 18 18 18 17 18 18 18 18 18 17 17 17 17 17 16 16 16 15 15 15 15 15 14 14 14 13 13
15 15 14 14 16 16 17 17 18 18 17 17 17 16 17 17 18 18 18 18 18 17 17 17 17 17 17 17 17 16 16 16 16 15 15 15 15 15 14 14 14 14 13 13
15 15 14 14 15 15 16 18 18 18 17 16 16 16 17 17 17 17 18 18 18 18 17 17 17 17 17 17 17 16 16 16 15 15 15 15 15 15 14 14 14 14 13 13
14 14 14 13 15 15 16 17 18 18 16 16 16 16 16 16 14 15 17 17 17 17 17 17 17 17 17 16 16 16 16 15 15 15 15 15 15 14 14 14 14 13 13 13
14 13 13 13 14 14 15 17 17 16 15 16 17 17 16 15 15 17 17 17 17 17 17 17 17 16 16 16 16 16 15 15 15 15 14 14 14 14 14 14 13 13 13 12
14 13 13 12 13 14 16 16 15 15 16 16 16 17 16 17 16 16 16 16 16 16 16 16 16 16 16 15 15 15 15 15 14 14 14 14 14 14 13 13 13 13 12 12
13 13 12 13 14 15 16 16 17 17 16 16 16 16 16 16 16 16 16 16 16 16 16 16 15 15 15 15 15 15 14 14 14 14 14 14 13 13 13 13 13 12 12 12
12 13 12 13 13 14 16 16 16 16 16 16 16 16 15 15 15 15 15 15 15 15 15 15 15 15 15 14 14 14 14 14 14 14 13 13 13 13 13 12 12 12 12 12
12 12 12 12 12 14 15 15 15 15 15 15 15 15 15 15 15 15 15 15 14 15 15 14 14 14 14 14 14 14 14 13 13 13 13 13 12 12 12 12 12 11 11 11
11 12 11 11 13 12 14 15 15 15 15 15 15 15 15 14 14 14 14 14 14 14 14 14 14 14 14 13 13 13 13 13 13 13 12 12 12 12 12 11 11 11 11 11
Wind_Speed
0 2 4 8 8 6 4 3 5 6 5 3 4 5 5 4 5 7 7 8 9 9 8 7 8 8 8 7 7 7 7 5 5 3 3 3 2 1 1 2 4 5 6 7
3 4 9 7 5 3 3 3 5 5 3 2 3 4 4 4 7 10 11 10 11 8 6 6 7 8 8 8 8 7 7 6 5 4 3 3 3 2 1 1 3 4 5 6
6 7 5 3 2 3 4 4 5 5 3 2 1 4 4 4 3 5 7 8 9 10 10 9 8 8 8 8 9 8 7 6 5 4 3 3 3 2 2 1 1 1 3 4
4 5 3 2 3 3 5 5 4 2 1 3 2 3 7 4 3 5 6 7 8 8 9 9 9 9 9 9 8 8 7 7 5 5 5 5 4 3 3 2 1 0 2 3
4 3 2 4 6 4 6 4 2 1 2 2 2 2 6 2 4 7 7 8 8 9 10 11 11 11 9 8 8 7 8 6 5 6 6 6 4 2 2 1 2 1 0 1
6 4 4 5 4 3 1 4 6 5 4 2 4 4 5 4 8 7 7 8 8 8 9 9 9 8 7 7 7 7 7 6 5 6 6 6 5 4 4 2 2 1 1 0
5 5 4 2 0 3 5 5 4 5 3 5 3 3 6 6 6 8 9 9 8 9 9 9 9 8 8 8 8 8 8 6 6 6 6 6 6 6 6 4 4 3 2 2
2 6 5 3 5 4 2 7 5 3 4 5 4 2 5 4 3 5 7 7 7 8 9 10 11 10 10 9 9 9 9 7 7 7 6 5 6 5 4 4 4 4 3 3
4 5 5 4 4 6 3 3 6 5 1 2 4 4 5 2 2 3 4 5 6 8 9 10 10 10 10 10 10 10 9 7 7 7 6 5 5 5 5 4 4 3 3 3
5 4 5 3 1 0 5 5 5 3 1 2 4 4 4 4 3 3 4 5 5 5 7 9 9 10 10 9 9 8 9 9 8 7 7 6 6 6 5 4 4 4 4 3
4 3 5 2 2 4 2 2 4 4 4 4 3 6 5 7 6 6 6 6 6 7 8 8 8 8 8 7 7 7 7 7 7 7 6 6 5 5 5 4 5 4 3 4
3 4 2 6 6 4 5 5 6 4 3 4 3 7 6 5 5 5 6 6 6 7 7 7 7 6 6 7 7 7 7 7 7 7 6 6 5 5 5 4 4 4 4 4
4 4 1 5 6 4 0 1 4 4 3 3 4 6 4 1 3 3 4 5 5 5 5 4 5 5 6 6 7 7 7 7 7 7 7 6 5 6 6 5 4 4 4 4
5 4 6 7 6 4 4 4 2 4 3 4 6 7 6 4 4 4 4 4 5 5 5 5 5 5 5 6 6 6 6 6 7 6 7 7 7 7 7 6 5 4 4 4
4 3 4 5 5 3 4 6 4 5 7 7 8 7 9 7 6 5 4 4 4 5 5 5 5 5 4 4 4 5 5 5 6 7 7 7 6 6 6 5 5 4 4 4
3 3 1 3 3 2 4 5 5 5 5 6 6 7 7 5 3 2 3 5 5 5 5 5 5 5 5 5 4 4 4 4 5 7 7 6 6 5 5 5 5 4 4 4
2 3 2 3 4 4 4 4 4 4 3 4 5 7 4 1 2 4 5 5 5 4 4 4 4 5 5 5 4 4 4 4 5 5 5 5 6 6 5 5 5 4 5 4
5 4 3 2 1 4 7 4 3 3 1 1 2 4 2 3 2 2 4 5 4 3 3 4 3 3 3 3 4 3 3 3 4 4 4 5 5 5 5 5 5 5 4 4
6 6 4 3 3 6 6 5 2 2 2 3 1 2 3 2 3 3 1 2 4 5 4 4 4 3 3 3 3 4 3 3 3 4 4 4 5 5 5 5 5 4 4 4
3 5 5 4 3 5 6 7 5 2 2 5 1 0 1 3 2 4 4 2 2 2 2 2 3 2 2 2 4 4 3 3 4 4 4 4 4 5 5 5 5 4 4 4
1 2 3 4 5 6 6 6 3 1 5 5 2 1 2 3 5 5 3 1 1 1 1 1 3 3 3 3 4 4 3 4 4 3 3 3 4 4 5 4 4 3 4 3
4 3 4 4 4 6 4 2 2 4 3 2 1 1 1 2 2 2 1 1 1 0 1 2 2 2 2 3 4 4 4 4 3 3 3 3 3 4 4 4 3 3 4 4
4 5 5 6 6 4 1 2 2 2 1 1 1 2 1 1 2 2 2 2 2 2 2 2 3 2 2 3 4 5 5 3 3 3 2 2 2 2 3 4 4 3 3 4
4 0 2 2 4 3 2 1 1 0 1 2 1 1 0 2 3 3 2 2 2 2 2 2 2 3 3 3 4 5 4 4 4 3 2 2 2 1 2 2 3 4 4 4
5 1 1 4 5 4 3 3 3 3 2 2 2 2 3 2 2 3 3 3 3 3 3 2 3 4 5 4 4 4 4 4 4 4 3 2 2 2 2 2 3 4 5 6
4 5 4 6 5 4 7 6 5 4 3 3 3 3 3 3 4 4 4 4 4 4 3 3 3 4 4 4 4 4 4 5 5 4 3 3 2 2 2 2 1 2 3 5
Wind_Direction
287 96 222 229 215 212 212 216 256 258 244 195 230 245 246 222 185 186 191 189 191 197 201 183 171 158 152 148 144 144 141 144 135 126 124 126 125 111 73 84 98 104 118 122
31 247 238 229 229 219 227 238 267 281 264 195 242 265 247 219 202 195 192 194 194 189 183 178 165 160 162 160 161 156 154 156 154 154 159 155 150 147 133 86 90 102 114 126
206 241 245 231 249 246 255 229 238 251 314 355 95 318 286 269 219 200 197 193 188 184 183 180 171 172 166 163 165 164 162 157 157 149 122 101 80 64 58 60 81 129 127 126
246 251 239 230 249 240 259 249 232 235 62 284 157 266 279 248 232 207 200 188 185 180 178 176 172 174 173 173 166 160 161 158 155 146 141 142 147 169 199 193 193 188 129 128
264 265 241 236 238 221 237 253 252 246 165 300 266 186 282 243 218 221 209 195 187 182 178 177 179 181 177 167 163 162 162 161 158 154 156 151 151 175 176 162 155 149 93 132
247 252 226 225 238 219 201 30 20 40 77 298 246 177 268 231 211 209 203 198 187 180 180 181 179 171 166 160 157 157 160 166 165 158 157 157 160 160 150 160 174 183 188 241
307 291 263 216 270 349 78 74 21 356 6 263 267 175 249 248 220 195 188 192 188 178 175 173 170 170 170 166 166 166 165 172 174 168 171 173 173 170 172 176 182 181 186 212
278 285 255 214 185 198 182 140 155 214 242 283 333 239 261 271 229 186 176 174 175 180 178 177 178 177 177 175 173 172 175 179 179 177 183 181 176 173 180 184 182 188 199 210
203 265 277 233 201 159 157 183 178 159 233 284 292 288 306 353 72 131 146 154 180 188 183 181 181 180 179 179 181 181 179 180 182 182 182 181 180 177 182 186 182 190 200 200
173 254 289 276 54 224 164 159 97 111 168 272 291 268 240 239 214 189 182 187 198 190 183 183 184 186 185 184 184 180 180 185 186 185 185 185 186 188 186 179 184 194 200 197
163 184 297 338 204 215 176 144 128 138 162 170 255 271 240 215 209 197 205 201 195 185 182 184 188 190 185 180 179 182 186 185 185 187 186 184 188 189 183 184 195 197 198 194
153 136 245 265 268 230 183 185 151 160 235 186 198 265 278 215 206 193 201 205 204 192 181 180 179 178 178 183 186 189 190 190 194 189 182 186 187 184 185 194 201 195 195 193
132 116 39 337 337 3 24 223 167 145 139 178 196 262 302 234 221 206 200 207 197 182 171 166 163 170 179 188 190 191 192 196 193 185 182 183 186 190 195 199 199 192 188 186
122 128 170 201 223 240 267 278 213 139 176 227 228 251 283 273 247 244 230 206 180 173 171 169 173 183 186 187 187 190 198 197 190 184 184 188 194 196 198 198 193 191 186 181
107 149 202 228 244 241 245 258 248 212 207 213 243 245 254 237 223 222 207 167 154 157 163 173 182 190 187 184 189 191 198 199 189 185 191 198 198 191 188 189 189 188 187 191
95 161 207 289 283 301 288 274 256 242 230 230 247 259 260 248 213 191 171 153 159 171 179 183 185 184 188 190 191 194 201 198 179 184 193 193 185 179 181 185 183 183 190 193
145 138 137 265 296 343 282 258 239 238 240 219 238 259 279 208 187 196 186 165 173 183 185 185 190 196 201 200 191 188 195 181 171 181 189 186 179 178 184 183 175 185 192 185
167 151 157 212 341 250 250 262 233 204 298 279 259 290 277 220 222 179 160 164 176 181 187 192 191 196 199 189 174 163 145 157 165 170 181 180 178 185 186 178 186 196 187 183
174 161 152 155 217 268 292 294 286 221 276 325 316 336 350 14 38 11 338 189 186 188 191 197 194 187 178 173 167 144 142 146 157 176 186 186 177 181 182 190 203 203 187 189
107 130 143 152 191 238 259 292 304 138 266 313 348 107 54 59 49 276 288 274 203 198 190 178 165 147 156 179 155 145 161 164 186 201 201 196 181 179 187 198 205 202 190 197
77 92 164 183 211 251 267 294 24 122 262 294 288 211 173 189 220 240 262 263 198 196 222 178 148 160 189 183 154 159 175 200 209 200 189 187 189 189 194 197 198 189 183 178
188 184 199 176 202 247 294 78 140 231 257 292 299 245 211 247 275 271 251 232 198 208 224 185 166 192 201 179 164 178 205 216 197 176 181 196 204 202 193 185 195 187 175 174
202 193 192 194 212 236 218 177 223 192 229 298 321 303 239 248 261 260 255 231 224 209 212 204 186 193 218 201 181 193 216 202 169 158 177 199 209 209 188 179 185 183 177 180
292 292 171 239 259 270 280 274 322 314 239 240 227 243 196 245 246 252 253 260 266 261 244 217 187 198 228 229 213 209 205 181 162 167 185 195 184 199 201 183 185 188 190 192
249 273 243 253 276 302 294 299 291 287 278 273 270 239 206 210 252 252 256 256 251 255 263 235 216 218 230 232 227 211 193 174 174 182 191 194 195 192 201 202 206 205 213 205
219 201 205 240 250 250 270 272 278 274 260 249 257 268 261 219 226 237 247 253 252 252 255 249 242 235 237 235 231 217 202 186 181 189 196 195 194 199 195 192 282 283 236 231
Height
1521 1526 1529 1525 1523 1524 1525 1528 1530 1524 1516 1519 1522 1521 1518 1516 1517 1518 1519 1520 1521 1523 1525 1526 1528 1530 1531 1532 1533 1534 1534 1535 1535 1535 1536 1536 1536 1537 1537 1537 1537 1537 1536 1536
1526 1527 1519 1517 1518 1520 1522 1527 1527 1521 1514 1517 1521 1520 1516 1515 1515 1514 1515 1517 1519 1521 1523 1525 1527 1528 1529 1530 1532 1533 1533 1534 1534 1535 1535 1536 1536 1536 1536 1536 1536 1536 1536 1536
1526 1520 1514 1516 1518 1520 1521 1524 1524 1522 1517 1516 1521 1525 1519 1515 1513 1513 1514 1514 1516 1518 1520 1522 1524 1526 1527 1529 1530 1531 1532 1533 1534 1534 1535 1535 1536 1536 1536 1536 1536 1536 1536 1536
1519 1514 1514 1516 1517 1518 1524 1515 1515 1517 1525 1531 1525 1539 1523 1516 1514 1512 1512 1513 1514 1516 1518 1520 1522 1524 1525 1527 1529 1530 1531 1532 1533 1533 1534 1534 1534 1534 1535 1535 1535 1535 1535 1535
1520 1514 1514 1516 1514 1513 1515 1510 1512 1515 1523 1530 1527 1535 1529 1517 1516 1512 1510 1511 1512 1514 1516 1517 1519 1522 1523 1525 1527 1529 1530 1531 1531 1532 1532 1533 1533 1533 1534 1534 1534 1534 1534 1534
1515 1511 1511 1510 1508 1508 1509 1513 1516 1522 1529 1539 1528 1534 1532 1519 1511 1508 1508 1509 1510 1512 1514 1516 1518 1520 1522 1524 1525 1527 1528 1529 1530 1530 1531 1531 1531 1532 1532 1532 1533 1533 1533 1533
1519 1512 1508 1507 1510 1509 1512 1528 1543 1544 1548 1543 1524 1528 1525 1508 1503 1503 1504 1506 1508 1510 1512 1514 1516 1518 1520 1521 1523 1524 1526 1527 1528 1529 1529 1530 1530 1530 1531 1531 1531 1531 1531 1531
1529 1526 1510 1506 1509 1514 1514 1525 1545 1552 1551 1542 1528 1528 1516 1503 1500 1500 1502 1504 1506 1508 1510 1511 1513 1515 1517 1519 1521 1522 1523 1524 1526 1526 1527 1528 1529 1529 1529 1529 1530 1530 1530 1530
1527 1524 1507 1503 1503 1507 1515 1521 1523 1536 1537 1542 1535 1523 1511 1502 1502 1502 1503 1504 1505 1506 1507 1509 1511 1513 1515 1517 1518 1520 1521 1522 1523 1524 1525 1526 1527 1527 1527 1528 1528 1528 1528 1528
1516 1522 1510 1504 1504 1504 1507 1513 1527 1535 1544 1549 1538 1529 1523 1509 1505 1503 1503 1503 1503 1504 1506 1508 1509 1511 1513 1515 1516 1518 1519 1520 1521 1522 1523 1524 1525 1525 1526 1526 1526 1526 1526 1527
1511 1521 1517 1510 1510 1512 1512 1515 1521 1532 1536 1545 1546 1534 1507 1505 1502 1501 1501 1501 1502 1502 1504 1506 1507 1509 1511 1513 1514 1515 1516 1517 1518 1519 1520 1521 1522 1523 1524 1524 1524 1524 1524 1524
1510 1519 1524 1516 1506 1503 1507 1511 1519 1532 1534 1535 1541 1532 1500 1499 1498 1499 1499 1500 1500 1501 1502 1504 1505 1507 1509 1510 1511 1512 1514 1515 1516 1517 1518 1519 1520 1520 1521 1521 1521 1522 1522 1522
1508 1520 1530 1527 1520 1510 1509 1508 1512 1520 1529 1535 1538 1527 1499 1498 1497 1497 1498 1498 1499 1500 1501 1502 1504 1505 1506 1507 1509 1510 1511 1512 1513 1514 1515 1516 1517 1517 1518 1518 1519 1519 1519 1519
1504 1516 1525 1530 1525 1516 1514 1509 1508 1517 1529 1530 1525 1516 1504 1500 1498 1497 1496 1496 1497 1498 1500 1501 1502 1503 1504 1505 1506 1507 1508 1509 1510 1511 1512 1513 1513 1514 1515 1516 1516 1516 1517 1517
1505 1515 1515 1514 1511 1509 1509 1508 1507 1511 1515 1520 1514 1509 1501 1497 1496 1495 1495 1495 1496 1497 1498 1499 1500 1501 1502 1503 1504 1505 1505 1506 1507 1508 1509 1509 1510 1511 1512 1513 1513 1513 1514 1514
1506 1513 1513 1513 1509 1508 1509 1506 1504 1505 1505 1507 1505 1504 1495 1493 1493 1494 1493 1494 1494 1495 1496 1497 1498 1499 1500 1500 1501 1502 1502 1503 1504 1505 1505 1506 1507 1508 1509 1509 1510 1510 1511 1511
1509 1513 1518 1521 1513 1510 1514 1505 1503 1503 1501 1502 1505 1500 1493 1493 1492 1492 1492 1492 1493 1493 1495 1495 1496 1497 1498 1498 1499 1499 1500 1500 1501 1502 1503 1504 1504 1505 1505 1506 1506 1507 1507 1508
1507 1512 1519 1521 1518 1524 1510 1497 1497 1499 1500 1498 1497 1495 1492 1491 1491 1490 1491 1491 1491 1492 1493 1494 1494 1495 1496 1496 1497 1497 1498 1498 1499 1499 1500 1501 1501 1502 1502 1502 1503 1503 1504 1505
1499 1507 1517 1523 1523 1517 1506 1497 1496 1498 1500 1497 1495 1494 1492 1491 1490 1491 1491 1491 1491 1491 1491 1492 1492 1493 1493 1494 1495 1495 1495 1496 1496 1496 1497 1497 1498 1498 1499 1499 1499 1500 1500 1501
1498 1502 1512 1519 1521 1521 1508 1495 1492 1495 1502 1495 1493 1493 1492 1491 1496 1494 1491 1490 1490 1490 1490 1490 1490 1491 1491 1492 1492 1492 1493 1493 1493 1493 1494 1494 1494 1495 1495 1495 1496 1496 1497 1497
1506 1509 1513 1516 1518 1512 1500 1494 1492 1505 1504 1495 1492 1491 1491 1491 1492 1491 1490 1489 1488 1488 1488 1488 1488 1488 1489 1489 1489 1489 1490 1490 1490 1491 1491 1491 1491 1491 1492 1492 1492 1493 1493 1493
1506 1510 1513 1515 1517 1512 1495 1494 1499 1499 1495 1493 1492 1490 1490 1489 1489 1488 1488 1487 1487 1486 1486 1486 1486 1486 1486 1487 1487 1487 1487 1487 1487 1487 1487 1487 1487 1488 1488 1488 1488 1489 1489 1489
1502 1502 1504 1505 1504 1496 1493 1494 1494 1493 1493 1492 1491 1490 1489 1488 1487 1487 1486 1485 1485 1485 1484 1484 1483 1483 1484 1484 1484 1483 1484 1484 1484 1484 1484 1484 1484 1484 1484 1484 1484 1484 1485 1485
1499 1496 1498 1499 1495 1493 1492 1492 1492 1491 1491 1490 1489 1488 1487 1486 1485 1484 1484 1483 1483 1482 1482 1481 1481 1480 1480 1480 1480 1481 1480 1481 1481 1481 1481 1481 1480 1480 1480 1480 1480 1480 1480 1480
1498 1496 1497 1496 1493 1491 1490 1490 1490 1489 1488 1487 1486 1485 1484 1483 1482 1482 1481 1481 1480 1480 1479 1478 1478 1477 1477 1477 1477 1477 1477 1477 1477 1477 1477 1477 1477 1477 1476 1476 1476 1476 1477 1477
1493 1494 1495 1494 1491 1491 1488 1487 1487 1486 1485 1484 1483 1482 1481 1480 1479 1478 1478 1477 1477 1476 1475 1475 1474 1474 1474 1473 1473 1473 1473 1473 1473 1473 1473 1473 1473 1473 1473 1472 1472 1472 1473 1473